Home > Weather > Liezen > Past weeks

Flag for Austria Past Weather in Liezen, Styria, Austria — Yesterday and Last 2 Weeks

Now
67 °F

Overcast.


Feels Like: 67 °F
Forecast: 63 / 78 °F
Wind: N/A

Location: Aigen Im Ennstal

Current Time: Jul 24, 2016 at 8:58:04 AM

Latest Report: Jul 24, 2016 at 8:00 AM


Visibility: 13 mi

Pressure: 30.07 "Hg (27.84 "Hg at 661m altitude)

Humidity: 79%

Dew Point: 60 °F

Location of LiezenLocation

Past Weather in Liezen — Graph

°F

Liezen Temperature Yesterday

Maximum temperature yesterday: 79 °F (at 3:00 PM)
Minimum temperature yesterday: 60 °F (at 6:00 AM)
Average temperature yesterday: 68 °F

High & Low Weather Summary for the Past Weeks

 TemperatureHumidityPressure
High87 °F (Jul 11, 3:00 PM)96% (Jul 21, 5:00 AM)30.31 "Hg (Jul 21, 5:00 AM)
Low49 °F (Jul 14, 6:00 AM)37% (Jul 10, 8:00 PM)29.76 "Hg (Jul 12, 7:00 PM)
Average64 °F75%30.06 "Hg
* Reported Jul 9 7:00 AM — Jul 24 7:00 AM, Liezen, Weather by CustomWeather, © 2016

Note: Actual official high and low records may vary slightly from our data, if they occured in-between our weather recording intervals... More about our weather records

Advertising

Liezen Weather History for the Previous 24 Hours

Scroll right to see more
 ConditionsComfort  
Time TempWeatherWind HumidityBarometerVisibility
7:00 AM
Sun, Jul 24
65 °FPartly sunny.N/A84%30.08 "Hg12 mi
6:00 AM64 °FMild.1 mph84%30.08 "HgN/A
5:00 AM64 °FMild.2 mph83%30.08 "HgN/A
4:00 AM65 °FMild.2 mph80%30.07 "HgN/A
3:00 AM64 °FMild.No wind85%30.07 "HgN/A
2:00 AM67 °FPassing clouds.N/A81%30.04 "Hg12 mi
1:00 AM69 °FMild.2 mph76%30.03 "HgN/A
12:00 AM68 °FMild.No wind82%30.01 "HgN/A
11:00 PM
Sat, Jul 23
69 °FPassing clouds.2 mph81%29.98 "Hg16 mi
10:00 PM70 °FMild.No wind79%29.97 "HgN/A
9:00 PM72 °FMild.1 mph72%29.94 "HgN/A
8:00 PM74 °FOvercast.N/A75%29.92 "Hg19 mi
7:00 PM76 °FMild.1 mph67%29.92 "HgN/A
6:00 PM77 °FWarm.1 mph67%29.92 "HgN/A
5:00 PM78 °FOvercast.2 mph66%29.91 "Hg19 mi
4:00 PM78 °FWarm.2 mph61%29.92 "HgN/A
3:00 PM79 °FWarm.2 mph61%29.94 "HgN/A
2:00 PM78 °FScattered clouds.N/A61%29.94 "Hg19 mi
1:00 PM73 °FMild.1 mph70%29.98 "HgN/A
12:00 PM70 °FMild.1 mph70%30.01 "HgN/A
11:00 AM69 °FScattered clouds.N/A75%30.02 "Hg16 mi
10:00 AM67 °FMild.No wind75%30.05 "HgN/A
9:00 AM63 °FMild.1 mph84%30.07 "HgN/A
8:00 AM61 °FLow clouds.N/A86%30.07 "Hg9 mi
Weather by CustomWeather, © 2016

See weather overviewHow to use our weather pages